"2009-08-08 00:00:00",1132129,6.851,154.4,2.947,0.36,23.91,111.1617,27.88,28.85,15.93,0,111.3,13.09,28.73,116.4
"2009-08-08 00:00:30",1132130,6.932,160.9,3.245,0.353,23.93,111.161,27.88,28.85,16.05,0,111.3,13.09,28.73,122.9
"2009-08-08 00:01:00",1132131,7.675,159.9,2.385,0.242,24.02,111.1501,27.85,28.84,15.18,0,111.3,13.09,28.70,121.9
"2009-08-08 00:01:30",1132132,7.284,157,3.184,0.394,23.92,111.1416,27.83,28.82,15.7,0,111.3,13.09,28.68,119.0
"2009-08-08 00:02:00",1132133,7.524,156,3.081,0.168,23.95,111.1449,27.84,28.83,15.2,0,111.3,13.09,28.69,118.0
"2009-08-08 00:02:30",1132134,7.341,152.9,3.51,0.534,23.93,111.1418,27.83,28.81,15.42,0,111.3,13.09,28.68,114.9
"2009-08-08 00:03:00",1132135,6.478,149.3,1.981,0.195,23.86,111.1385,27.82,28.8,16.04,0,111.3,13.1,28.67,111.3
"2009-08-08 00:03:30",1132136,6.408,149.5,2.681,0.321,23.82,111.1376,27.82,28.81,16.47,0,111.3,13.1,28.67,111.5
"2009-08-08 00:04:00",1132137,7.014,156.1,5.82,0.331,23.89,111.1385,27.82,28.8,16.19,0,111.3,13.1,28.67,118.1
"2009-08-08 00:04:30",1132138,7.609,158.9,1.621,0.168,24.04,111.1392,27.82,28.79,15.68,0,111.3,13.1,28.67,120.9
"2009-08-08 00:05:00",1132139,7.823,160.1,1.905,0.256,23.96,111.1383,27.82,28.8,15.48,0,111.3,13.1,28.67,122.1
"2009-08-08 00:05:30",1132140,6.915,153.7,3.43,0.491,23.88,111.1372,27.82,28.78,15.82,0,111.3,13.1,28.67,115.7
"2009-08-08 00:06:00",1132141,6.836,155.1,4.852,0.502,23.89,111.1366,27.82,28.79,16.07,0,111.3,13.1,28.67,117.1
"2009-08-08 00:06:30",1132142,7.348,160.6,1.904,0.325,23.96,111.1319,27.8,28.77,16.05,0,111.3,13.1,28.65,122.6
"2009-08-08 00:07:00",1132143,7.674,163.3,1.285,0.197,24.05,111.1216,27.78,28.77,15.04,0,111.3,13.1,28.63,125.3
"2009-08-08 00:07:30",1132144,7.779,155.7,3.446,0.417,23.97,111.1172,27.77,28.76,15.05,0,111.3,13.1,28.62,117.7
"2009-08-08 00:08:00",1132145,7.704,155.3,4.294,0.245,23.92,111.1152,27.76,28.74,15.49,0,111.3,13.1,28.61,117.3
"2009-08-08 00:08:30",1132146,6.816,158.1,3.005,0.377,23.91,111.1165,27.76,28.74,15.63,0,111.2,13.1,28.61,120.1
"2009-08-08 00:09:00",1132147,7.317,157.5,2.485,0.365,23.95,111.1139,27.76,28.75,15.48,0,111.2,13.1,28.61,119.5
"2009-08-08 00:09:30",1132148,6.812,152.2,4.782,0.533,23.93,111.1137,27.76,28.74,14.91,0,111.2,13.1,28.61,114.2
"2009-08-08 00:10:00",1132149,6.984,153.9,2.375,0.224,23.91,111.1112,27.75,28.74,15.05,0,111.3,13.1,28.60,115.9
"2009-08-08 00:10:30",1132150,7.039,150.2,2.261,0.301,23.89,111.1119,27.75,28.73,15.35,0,111.3,13.1,28.60,112.2
"2009-08-08 00:11:00",1132151,7.478,153.1,2.413,0.275,23.87,111.113,27.76,28.73,15.55,0,111.3,13.11,28.60,115.1
"2009-08-08 00:11:30",1132152,8.7,151.9,6.333,0.337,23.96,111.1139,27.76,28.73,15.02,0,111.3,13.1,28.61,113.9
"2009-08-08 00:12:00",1132153,8.49,144.6,2.949,0.329,23.86,111.1145,27.76,28.72,15.18,0,111.3,13.1,28.61,106.6
"2009-08-08 00:12:30",1132154,8.48,149,3.006,0.392,23.91,111.1149,27.76,28.73,15.32,0,111.2,13.11,28.61,111.0
"2009-08-08 00:13:00",1132155,8.86,149.3,1.497,0.177,23.97,111.1149,27.76,28.73,14.73,0,111.2,13.11,28.61,111.3
"2009-08-08 00:13:30",1132156,8.82,148.9,1.545,0.262,23.93,111.1149,27.76,28.72,14.91,0,111.2,13.11,28.61,110.9
"2009-08-08 00:14:00",1132157,8.77,148.7,1.581,0.249,23.94,111.1149,27.76,28.71,15.14,0,111.2,13.11,28.61,110.7
"2009-08-08 00:14:30",1132158,8.85,148.4,2.107,0.264,23.97,111.1151,27.76,28.72,14.87,0,111.2,13.11,28.61,110.4
"2009-08-08 00:15:00",1132159,8.61,149.5,1.692,0.226,23.93,111.1149,27.76,28.71,14.74,0,111.2,13.11,28.61,111.5
"2009-08-08 00:15:30",1132160,8.62,147.1,1.619,0.136,23.87,111.1149,27.76,28.72,15.17,0,111.2,13.11,28.61,109.1
"2009-08-08 00:16:00",1132161,8.32,145.2,3.037,0.244,23.86,111.1149,27.76,28.71,15.37,0,111.2,13.11,28.61,107.2
"2009-08-08 00:16:30",1132162,8.69,150.3,3.713,0.21,23.97,111.1149,27.76,28.71,14.98,0,111.2,13.1,28.61,112.3
"2009-08-08 00:17:00",1132163,9.18,150.6,1.44,0.252,23.96,111.1149,27.76,28.72,15.03,0,111.2,13.1,28.61,112.6
"2009-08-08 00:17:30",1132164,8.85,148.7,1.598,0.166,23.94,111.1151,27.76,28.73,15.33,0,111.2,13.1,28.61,110.7
"2009-08-08 00:18:00",1132165,8.93,151.4,2.682,0.207,23.96,111.1157,27.76,28.71,15.1,0,111.2,13.1,28.61,113.4
"2009-08-08 00:18:30",1132166,8.34,145.1,1.39,0.204,23.85,111.1154,27.76,28.72,15.34,0,111.2,13.1,28.61,107.1
"2009-08-08 00:19:00",1132167,8.04,150.5,2.993,0.153,23.97,111.1154,27.76,28.73,15.19,0,111.2,13.1,28.61,112.5
"2009-08-08 00:19:30",1132168,7.945,146.2,2.37,0.185,23.87,111.1149,27.76,28.72,15.28,0,111.2,13.1,28.61,108.2
"2009-08-08 00:20:00",1132169,7.971,150.4,1.981,0.329,23.9,111.1149,27.76,28.71,15.31,0,111.2,13.1,28.61,112.4
"2009-08-08 00:20:30",1132170,7.715,152.2,3.443,0.313,23.92,111.1149,27.76,28.73,14.99,0,111.2,13.11,28.61,114.2
"2009-08-08 00:21:00",1132171,7.986,149.9,2.954,0.348,23.87,111.1149,27.76,28.73,15.41,0,111.2,13.11,28.61,111.9
"2009-08-08 00:21:30",1132172,8.37,156.1,2.224,0.34,23.97,111.1149,27.76,28.74,15.02,0,111.2,13.11,28.61,118.1
"2009-08-08 00:22:00",1132173,7.974,152.9,3.365,0.304,23.89,111.1149,27.76,28.73,14.99,0,111.2,13.11,28.61,114.9
"2009-08-08 00:22:30",1132174,7.857,154,2.889,0.625,23.92,111.1149,27.76,28.73,15.18,0,111.2,13.11,28.61,116.0
"2009-08-08 00:23:00",1132175,8.52,151.3,1.847,0.167,23.99,111.1149,27.76,28.72,14.67,0,111.2,13.11,28.61,113.3
"2009-08-08 00:23:30",1132176,8.63,154.8,1.843,0.185,24.02,111.1149,27.76,28.73,14.35,0,111.2,13.11,28.61,116.8
"2009-08-08 00:24:00",1132177,8.42,151.6,1.899,0.175,23.97,111.1149,27.76,28.72,14.24,0,111.2,13.11,28.61,113.6
"2009-08-08 00:24:30",1132178,8.75,152.4,2.279,0.118,24.01,111.1149,27.76,28.73,14.25,0,111.2,13.11,28.61,114.4
"2009-08-08 00:25:00",1132179,8.62,157.1,0.522,0.262,24.07,111.1149,27.76,28.72,14.29,0,111.2,13.11,28.61,119.1
"2009-08-08 00:25:30",1132180,8.11,156.6,1.062,0.205,24.05,111.1149,27.76,28.72,14.31,0,111.2,13.11,28.61,118.6
"2009-08-08 00:26:00",1132181,7.842,155.5,1.995,0.139,24.05,111.1149,27.76,28.73,14.3,0,111.2,13.11,28.61,117.5
"2009-08-08 00:26:30",1132182,7.534,152.5,0.909,0.109,23.96,111.1149,27.76,28.73,14.29,0,111.2,13.11,28.61,114.5
"2009-08-08 00:27:00",1132183,7.566,150.8,1.807,0.157,23.95,111.1149,27.76,28.73,14.29,0,111.2,13.11,28.61,112.8
"2009-08-08 00:27:30",1132184,7.313,151.3,0.857,0.092,24.06,111.1149,27.76,28.72,14.3,0,111.2,13.11,28.61,113.3
"2009-08-08 00:28:00",1132185,7.544,148.2,1.671,0.311,24,111.1149,27.76,28.74,14.31,0,111.2,13.11,28.61,110.2
"2009-08-08 00:28:30",1132186,7.724,148.3,1.863,0.341,24,111.1149,27.76,28.74,14.27,0,111.2,13.11,28.61,110.3
"2009-08-08 00:29:00",1132187,7.022,145.4,2.269,0.241,23.92,111.1149,27.76,28.74,14.28,0,111.2,13.11,28.61,107.4
"2009-08-08 00:29:30",1132188,7.019,145.5,1.08,0.144,23.95,111.1155,27.76,28.75,14.33,0,111.2,13.11,28.61,107.5
"2009-08-08 00:30:00",1132189,7.09,153.8,1.434,0.088,24.01,111.1152,27.76,28.74,14.33,0,111.2,13.11,28.61,115.8
"2009-08-08 00:30:30",1132190,7.212,145.8,2.019,0.136,23.88,111.1154,27.76,28.75,14.34,0,111.2,13.11,28.61,107.8
"2009-08-08 00:31:00",1132191,7.526,144.6,1.477,0.122,23.93,111.1152,27.76,28.75,14.3,0,111.2,13.11,28.61,106.6
"2009-08-08 00:31:30",1132192,7.61,144.4,2.04,0.231,23.9,111.1161,27.76,28.75,14.21,0,111.2,13.11,28.61,106.4
"2009-08-08 00:32:00",1132193,7.438,146.3,3.049,0.264,23.92,111.1158,27.76,28.76,14.19,0,111.2,13.11,28.61,108.3
"2009-08-08 00:32:30",1132194,7.473,146.8,1.49,0.197,23.94,111.1155,27.76,28.75,14.24,0,111.2,13.11,28.61,108.8
"2009-08-08 00:33:00",1132195,7.806,150.3,1.81,0.192,23.98,111.1177,27.77,28.77,14.22,0,111.2,13.11,28.62,112.3
"2009-08-08 00:33:30",1132196,7.975,144.9,1.763,0.233,23.95,111.1192,27.77,28.77,14.22,0,111.2,13.11,28.62,106.9
"2009-08-08 00:34:00",1132197,8.51,145.9,2.58,0.53,23.98,111.1186,27.77,28.74,14.22,0,111.2,13.11,28.62,107.9
"2009-08-08 00:34:30",1132198,9.05,144.8,1.948,0.232,24.01,111.1183,27.77,28.74,14.21,0,111.2,13.11,28.62,106.8
"2009-08-08 00:35:00",1132199,8.38,145,0.978,0.303,23.98,111.1189,27.77,28.76,14.21,0,111.2,13.11,28.62,107.0
"2009-08-08 00:35:30",1132200,8.04,145.2,1.297,0.118,23.86,111.1192,27.77,28.75,14.24,0,111.2,13.11,28.62,107.2
"2009-08-08 00:36:00",1132201,7.95,142.4,1.799,0.154,23.96,111.1205,27.77,28.74,14.34,0,111.2,13.11,28.62,104.4
"2009-08-08 00:36:30",1132202,7.734,146.4,1.456,0.23,23.98,111.1195,27.77,28.75,14.31,0,111.2,13.11,28.62,108.4
"2009-08-08 00:37:00",1132203,7.4,145,1.92,0.263,23.99,111.1208,27.78,28.75,14.3,0,111.2,13.11,28.62,107.0
"2009-08-08 00:37:30",1132204,7.751,145.2,2.201,0.337,23.98,111.1227,27.78,28.74,14.27,0,111.2,13.11,28.63,107.2
"2009-08-08 00:38:00",1132205,7.517,142.5,1.97,0.205,23.9,111.1224,27.78,28.75,14.35,0,111.2,13.11,28.63,104.5
"2009-08-08 00:38:30",1132206,7.805,142.3,1.409,0.195,23.95,111.1228,27.78,28.74,14.37,0,111.2,13.11,28.63,104.3
"2009-08-08 00:39:00",1132207,7.651,137.3,1.268,0.332,23.88,111.1198,27.77,28.74,14.45,0,111.2,13.11,28.62,99.3
"2009-08-08 00:39:30",1132208,7.343,136.9,1.496,0.122,23.86,111.1149,27.76,28.74,14.47,0,111.2,13.12,28.61,98.9
"2009-08-08 00:40:00",1132209,7.519,137.8,0.906,0.189,23.86,111.1085,27.74,28.75,14.48,0,111.2,13.12,28.59,99.8
"2009-08-08 00:40:30",1132210,7.884,137.8,1.46,0.123,23.94,111.1064,27.74,28.73,14.46,0,111.2,13.12,28.59,99.8
"2009-08-08 00:41:00",1132211,7.882,138.4,1.011,0.247,23.9,111.1074,27.74,28.74,14.51,0,111.2,13.12,28.59,100.4
"2009-08-08 00:41:30",1132212,7.847,138.9,0.846,0.097,23.89,111.1082,27.74,28.72,14.34,0,111.2,13.12,28.59,100.9
"2009-08-08 00:42:00",1132213,8.09,137.6,0.931,0.219,23.92,111.1018,27.73,28.72,14.42,0,111.2,13.12,28.58,99.6
"2009-08-08 00:42:30",1132214,8.01,138,1.178,0.109,23.94,111.103,27.73,28.71,14.28,0,111.2,13.12,28.58,100.0
"2009-08-08 00:43:00",1132215,8.27,140.2,1.217,0.344,23.92,111.1021,27.73,28.71,14.33,0,111.2,13.12,28.58,102.2
"2009-08-08 00:43:30",1132216,8.78,137.3,1.593,0.332,23.91,111.1046,27.73,28.71,14.39,0,111.2,13.12,28.58,99.3
"2009-08-08 00:44:00",1132217,8.53,140.8,2.195,0.33,23.97,111.1049,27.73,28.71,14.23,0,111.2,13.12,28.58,102.8
"2009-08-08 00:44:30",1132218,8.29,142.1,2.421,0.295,24,111.1046,27.73,28.71,14.28,0,111.2,13.12,28.58,104.1
"2009-08-08 00:45:00",1132219,7.38,138.1,2.769,0.289,23.87,111.103,27.73,28.71,14.29,0,111.2,13.12,28.58,100.1
"2009-08-08 00:45:30",1132220,7.8,136.3,1.486,0.217,23.87,111.1067,27.74,28.71,14.31,0,111.2,13.12,28.59,98.3
"2009-08-08 00:46:00",1132221,7.593,139.7,1.709,0.318,23.87,111.1067,27.74,28.7,14.25,0,111.2,13.12,28.59,101.7
"2009-08-08 00:46:30",1132222,7.751,138.4,1.004,0.087,23.83,111.1064,27.74,28.71,14.27,0,111.2,13.12,28.59,100.4
"2009-08-08 00:47:00",1132223,7.682,138.5,0.932,0.14,23.82,111.1074,27.74,28.69,14.41,0,111.2,13.12,28.59,100.5
"2009-08-08 00:47:30",1132224,7.646,139.3,0.855,0.112,23.81,111.1083,27.74,28.68,14.47,0,111.2,13.12,28.59,101.3
"2009-08-08 00:48:00",1132225,7.532,141.1,1.827,0.192,23.68,111.1054,27.74,28.69,14.7,0,111.2,13.12,28.58,103.1
"2009-08-08 00:48:30",1132226,5.917,132.5,4.114,0.638,23.33,111.1046,27.73,28.7,15.56,0,111.2,13.12,28.58,94.5
"2009-08-08 00:49:00",1132227,5.666,134.9,3.235,0.39,23.44,111.099,27.72,28.68,15.82,0,111.2,13.12,28.57,96.9
"2009-08-08 00:49:30",1132228,5.706,133.6,4.44,0.494,23.44,111.091,27.7,28.67,15.81,0,111.2,13.12,28.55,95.6
"2009-08-08 00:50:00",1132229,4.043,117.1,10.56,0.74,23.26,111.0809,27.67,28.67,16.2,0,111.2,13.12,28.52,79.1
"2009-08-08 00:50:30",1132230,4.865,114.2,6.136,0.594,23.2,111.0755,27.66,28.66,17.32,0,111.2,13.12,28.51,76.2
"2009-08-08 00:51:00",1132231,4.583,113.9,13.53,0.357,23.2,111.0755,27.66,28.65,17.46,0,111.2,13.12,28.51,75.9
"2009-08-08 00:51:30",1132232,4.54,92.3,8.99,0.441,23.18,111.0604,27.62,28.64,18.29,0,111.2,13.12,28.47,54.3
"2009-08-08 00:52:00",1132233,4.723,97.3,8.26,0.367,22.98,111.0444,27.58,28.62,20.44,0,111.2,13.12,28.43,59.3
"2009-08-08 00:52:30",1132234,5.785,91.1,13.8,0.689,22.94,111.0416,27.57,28.6,21.23,0,111.2,13.12,28.42,53.1
"2009-08-08 00:53:00",1132235,4.76,75.73,4.631,0.619,22.87,111.0203,27.52,28.58,23.53,0,111.2,13.12,28.37,37.7
"2009-08-08 00:53:30",1132236,4.439,93.2,12.45,0.334,22.99,111.0091,27.49,28.54,22.49,0,111.2,13.12,28.34,55.2
"2009-08-08 00:54:00",1132237,4.048,102.2,12.57,0.648,23.1,110.9906,27.44,28.52,21.64,0,111.2,13.12,28.29,64.2
"2009-08-08 00:54:30",1132238,5.181,106.1,12.11,0.677,23.23,110.9661,27.38,28.47,20.61,0,111.2,13.12,28.23,68.1
"2009-08-08 00:55:00",1132239,6.66,86.6,4.331,0.579,22.96,110.9405,27.31,28.42,22.52,0,111.2,13.12,28.16,48.6
"2009-08-08 00:55:30",1132240,7.232,76.92,4.203,0.217,22.74,110.914,27.24,28.38,24.95,0,111.2,13.12,28.09,38.9
"2009-08-08 00:56:00",1132241,7.294,83.7,4.553,0.552,23.03,110.9067,27.23,28.33,23.78,0,111.2,13.12,28.07,45.7
"2009-08-08 00:56:30",1132242,6.964,95,5.513,0.445,23.39,110.8799,27.16,28.28,21.76,0,111.2,13.12,28.00,57.0
"2009-08-08 00:57:00",1132243,6.808,91.8,12.96,0.965,23.56,110.8513,27.08,28.25,20.21,0,111.2,13.12,27.93,53.8
"2009-08-08 00:57:30",1132244,5.495,119,5.399,0.59,23.6,110.8354,27.04,28.17,17.62,0,111.2,13.12,27.89,81.0
"2009-08-08 00:58:00",1132245,4.458,100.9,17.37,1.438,23.27,110.815,26.99,28.13,18.61,0,111.2,13.12,27.84,62.9
"2009-08-08 00:58:30",1132246,7.119,89.2,9.88,0.836,23.13,110.7985,26.95,28.09,21.25,0,111.2,13.12,27.79,51.2
"2009-08-08 00:59:00",1132247,7.869,89.2,5.065,0.514,22.81,110.7819,26.9,28.04,23.14,0,111.2,13.12,27.75,51.2
"2009-08-08 00:59:30",1132248,6.944,86.7,6.377,1.045,22.8,110.7662,26.86,28.01,24.19,0,111.2,13.12,27.71,48.7
"2009-08-08 01:00:00",1132249,6.798,98,3.968,0.721,22.83,110.748,26.82,27.97,24.07,0,111.2,13.12,27.66,60.0
"2009-08-08 01:00:30",1132250,6.945,97.4,6.077,0.619,22.9,110.7244,26.76,27.94,23.68,0,111.2,13.12,27.60,59.4
"2009-08-08 01:01:00",1132251,7.396,93,2.105,0.302,22.88,110.7129,26.73,27.89,23.47,0,111.2,13.12,27.57,55.0
"2009-08-08 01:01:30",1132252,6.867,96.7,7.695,0.624,22.99,110.6873,26.66,27.84,22.9,0,111.2,13.12,27.51,58.7
"2009-08-08 01:02:00",1132253,5.695,114.8,10.44,0.349,23.41,110.6795,26.64,27.8,20.1,0,111.2,13.12,27.49,76.8
"2009-08-08 01:02:30",1132254,4.627,93.1,9.44,0.52,22.83,110.6595,26.59,27.76,21.63,0,111.2,13.12,27.43,55.1
"2009-08-08 01:03:00",1132255,6.181,99.2,15.13,0.712,22.93,110.6486,26.56,27.74,21.52,0,111.2,13.12,27.41,61.2
"2009-08-08 01:03:30",1132256,6.302,89.8,3.272,0.672,23.01,110.6466,26.56,27.68,21.28,0,111.2,13.13,27.40,51.8
"2009-08-08 01:04:00",1132257,5.672,87.2,4.335,0.349,22.96,110.6435,26.55,27.66,20.93,0,111.2,13.13,27.39,49.2
"2009-08-08 01:04:30",1132258,6.17,92.1,3.543,0.44,22.78,110.6323,26.52,27.62,21.58,0,111.2,13.13,27.36,54.1
"2009-08-08 01:05:00",1132259,6.612,88.3,2.706,0.231,22.82,110.6208,26.49,27.61,21.52,0,111.2,13.13,27.33,50.3
"2009-08-08 01:05:30",1132260,6.551,84.5,7.368,0.464,22.85,110.6135,26.47,27.59,21.74,0,111.2,13.13,27.32,46.5
"2009-08-08 01:06:00",1132261,7.034,89,4.039,0.679,22.59,110.6132,26.47,27.57,22.33,0,111.2,13.13,27.31,51.0
"2009-08-08 01:06:30",1132262,7.959,84.4,2.34,0.426,22.77,110.6132,26.47,27.55,23.27,0,111.2,13.13,27.31,46.4
"2009-08-08 01:07:00",1132263,7.577,84.1,2.686,0.386,22.99,110.6132,26.47,27.53,21.68,0,111.2,13.12,27.31,46.1
"2009-08-08 01:07:30",1132264,6.807,88,5.37,0.508,23.01,110.6124,26.47,27.53,21.43,0,111.2,13.12,27.31,50.0
"2009-08-08 01:08:00",1132265,5.721,86.8,5.475,0.925,22.89,110.6087,26.46,27.52,22.28,0,111.2,13.12,27.30,48.8
"2009-08-08 01:08:30",1132266,6.179,86.9,3.068,0.687,23.09,110.5969,26.43,27.5,21.29,0,111.2,13.12,27.27,48.9
"2009-08-08 01:09:00",1132267,6.617,79.29,2.858,0.407,23.06,110.5885,26.41,27.47,21.51,0,111.2,13.12,27.25,41.3
"2009-08-08 01:09:30",1132268,7.24,85.3,4.69,0.263,23.21,110.5865,26.4,27.47,21.13,0,111.2,13.12,27.25,47.3
"2009-08-08 01:10:00",1132269,7.128,89.4,5.329,0.488,23.12,110.5826,26.39,27.46,21.11,0,111.2,13.12,27.24,51.4
"2009-08-08 01:10:30",1132270,7.567,87.4,4.352,0.396,23.05,110.5795,26.38,27.45,22.07,0,111.2,13.12,27.23,49.4
"2009-08-08 01:11:00",1132271,6.947,92.8,4.947,0.457,23.15,110.5795,26.38,27.44,21.57,0,111.2,13.12,27.23,54.8
"2009-08-08 01:11:30",1132272,6.449,86,4.493,0.407,23.22,110.5795,26.38,27.41,21.15,0,111.2,13.12,27.23,48.0
"2009-08-08 01:12:00",1132273,7.518,86.4,5.783,0.63,23.15,110.5795,26.38,27.42,21.24,0,111.2,13.13,27.23,48.4
"2009-08-08 01:12:30",1132274,8.63,85.5,1.993,0.422,23.02,110.5778,26.38,27.42,22.85,0,111.2,13.13,27.22,47.5
"2009-08-08 01:13:00",1132275,7.275,88.8,4.651,0.531,23.31,110.5736,26.37,27.41,21.07,0,111.2,13.13,27.21,50.8
"2009-08-08 01:13:30",1132276,7.169,87.6,4.57,0.528,23.33,110.5711,26.36,27.4,20.89,0,111.2,13.13,27.21,49.6
"2009-08-08 01:14:00",1132277,7.342,87.6,3.096,0.583,23.38,110.5615,26.34,27.39,20.47,0,111.2,13.13,27.18,49.6
"2009-08-08 01:14:30",1132278,5.808,86.9,5.595,0.507,23.42,110.5556,26.32,27.38,19.79,0,111.2,13.13,27.17,48.9
"2009-08-08 01:15:00",1132279,6.258,90.6,6.206,0.228,23.38,110.5545,26.32,27.36,19.8,0,111.2,13.13,27.16,52.6
"2009-08-08 01:15:30",1132280,6.556,85.8,2.378,0.567,23.41,110.554,26.32,27.36,19.88,0,111.2,13.13,27.16,47.8
"2009-08-08 01:16:00",1132281,6.836,90.7,7.581,0.421,23.48,110.554,26.32,27.36,19.71,0,111.2,13.13,27.16,52.7
"2009-08-08 01:16:30",1132282,6.421,92.6,6.756,0.478,23.5,110.5551,26.32,27.35,18.99,0,111.2,13.13,27.16,54.6
"2009-08-08 01:17:00",1132283,7.991,82.6,2.549,0.293,22.8,110.5585,26.33,27.36,22.59,0,111.2,13.13,27.17,44.6
"2009-08-08 01:17:30",1132284,7.2,83.1,2.021,0.232,23.27,110.5554,26.32,27.36,22.06,0,111.2,13.13,27.17,45.1
"2009-08-08 01:18:00",1132285,6.192,93,4.411,0.495,23.63,110.5551,26.32,27.35,19.6,0,111.2,13.13,27.16,55.0
"2009-08-08 01:18:30",1132286,6.822,83.6,5.811,0.92,23.59,110.5562,26.32,27.34,18.83,0,111.2,13.13,27.17,45.6
"2009-08-08 01:19:00",1132287,7.895,91.7,4.213,0.277,23.29,110.5582,26.33,27.36,20.07,0,111.2,13.13,27.17,53.7
"2009-08-08 01:19:30",1132288,9.09,85,4.794,0.58,22.82,110.5635,26.34,27.34,22.54,0,111.2,13.13,27.19,47.0
"2009-08-08 01:20:00",1132289,9.25,87.6,2.762,0.389,23.06,110.5585,26.33,27.35,23.11,0,111.2,13.13,27.17,49.6
"2009-08-08 01:20:30",1132290,9.39,85,2.65,0.572,22.95,110.5544,26.32,27.33,23.84,0,111.2,13.13,27.16,47.0
"2009-08-08 01:21:00",1132291,8.09,89.3,2.493,0.384,23.29,110.5482,26.3,27.34,22.2,0,111.2,13.13,27.15,51.3
"2009-08-08 01:21:30",1132292,9.03,89.4,2.477,0.383,23.09,110.5483,26.3,27.33,22.35,0,111.2,13.13,27.15,51.4
"2009-08-08 01:22:00",1132293,9.96,92.8,2.525,0.672,23.21,110.5495,26.31,27.33,22.45,0,111.2,13.13,27.15,54.8
"2009-08-08 01:22:30",1132294,10.05,92.1,3.202,0.39,23.01,110.5451,26.3,27.31,23.61,0,111.2,13.13,27.14,54.1
"2009-08-08 01:23:00",1132295,8.84,95.6,2.472,0.564,23.15,110.5288,26.25,27.32,22.79,0,111.2,13.13,27.10,57.6
"2009-08-08 01:23:30",1132296,9.38,91.6,1.569,0.669,23.07,110.522,26.24,27.3,23.32,0,111.2,13.13,27.08,53.6
"2009-08-08 01:24:00",1132297,8.37,93.3,2.258,0.502,23.25,110.5248,26.24,27.29,22.96,0,111.2,13.13,27.09,55.3
"2009-08-08 01:24:30",1132298,9.16,91.8,1.707,0.202,23.13,110.5268,26.25,27.29,22.75,0,111.2,13.13,27.09,53.8
"2009-08-08 01:25:00",1132299,9.58,95.1,3.491,0.569,23.07,110.5141,26.22,27.24,23.77,0,111.2,13.13,27.06,57.1
"2009-08-08 01:25:30",1132300,9.45,95,5.594,0.759,23.64,110.5057,26.19,27.25,21.47,0,111.2,13.13,27.04,57.0
"2009-08-08 01:26:00",1132301,8.07,105,5.983,0.713,23.72,110.5046,26.19,27.23,19.59,0,111.2,13.13,27.03,67.0
"2009-08-08 01:26:30",1132302,7.457,105.4,8.52,0.556,23.56,110.5044,26.19,27.2,19.66,0,111.2,13.13,27.03,67.4
"2009-08-08 01:27:00",1132303,10.18,97.7,4.042,0.668,23.02,110.5063,26.2,27.19,23.25,0,111.2,13.13,27.04,59.7
"2009-08-08 01:27:30",1132304,10.08,100.7,4.392,0.688,23.17,110.5044,26.19,27.2,23.75,0,111.2,13.13,27.03,62.7
"2009-08-08 01:28:00",1132305,10.29,96.8,3.452,0.755,23.1,110.5064,26.2,27.2,23.38,0,111.2,13.13,27.04,58.8
"2009-08-08 01:28:30",1132306,9.39,99.8,3.347,0.4,23.19,110.5064,26.2,27.19,24.08,0,111.2,13.13,27.04,61.8
"2009-08-08 01:29:00",1132307,8.69,100.9,2.427,0.293,23.33,110.5057,26.19,27.18,22.72,0,111.2,13.13,27.04,62.9
"2009-08-08 01:29:30",1132308,8.25,100.8,3.844,0.702,23.29,110.5061,26.2,27.17,23.03,0,111.2,13.13,27.04,62.8
"2009-08-08 01:30:00",1132309,8.79,97.4,3.727,0.443,23.33,110.5047,26.19,27.17,22.52,0,111.2,13.14,27.03,59.4
"2009-08-08 01:30:30",1132310,8.12,100.1,3.877,0.82,23.36,110.492,26.16,27.15,22.89,0,111.2,13.14,27.00,62.1
"2009-08-08 01:31:00",1132311,8.14,94,5.054,0.631,23.31,110.483,26.14,27.15,22.02,0,111.2,13.14,26.98,56.0
"2009-08-08 01:31:30",1132312,9.8,95.6,1.908,0.661,23.05,110.4811,26.13,27.15,24.31,0,111.2,13.14,26.97,57.6
"2009-08-08 01:32:00",1132313,10.74,93.7,1.783,0.314,22.85,110.4763,26.12,27.13,26.02,0,111.2,13.14,26.96,55.7
"2009-08-08 01:32:30",1132314,9.37,98.2,2.583,0.343,23.27,110.473,26.11,27.13,24.35,0,111.2,13.14,26.95,60.2
"2009-08-08 01:33:00",1132315,9.3,96.1,4.355,0.647,23.23,110.473,26.11,27.12,24.02,0,111.2,13.14,26.95,58.1
"2009-08-08 01:33:30",1132316,9.75,95.6,3.301,0.384,23.15,110.4657,26.09,27.1,24.72,0,111.2,13.14,26.93,57.6
"2009-08-08 01:34:00",1132317,9.5,98.2,4.462,0.638,23.19,110.4492,26.05,27.08,24.41,0,111.2,13.14,26.89,60.2
"2009-08-08 01:34:30",1132318,10.01,96.3,3.142,0.371,23.03,110.4428,26.03,27.07,24.79,0,111.2,13.14,26.88,58.3
"2009-08-08 01:35:00",1132319,10.41,94.3,3.43,0.32,22.96,110.4427,26.03,27.06,25.72,0,111.2,13.14,26.87,56.3
"2009-08-08 01:35:30",1132320,11.01,93.5,1.388,0.477,22.95,110.4383,26.02,27.05,26.8,0,111.2,13.14,26.86,55.5
"2009-08-08 01:36:00",1132321,10.31,94.1,1.498,0.469,23.03,110.4174,25.97,27.03,25.76,0,111.1,13.14,26.81,56.1
"2009-08-08 01:36:30",1132322,10.08,95,2.709,0.326,23.08,110.4118,25.95,27,25.17,0,111.2,13.14,26.80,57.0
"2009-08-08 01:37:00",1132323,10.07,92,2.14,0.499,22.95,110.411,25.95,26.99,25.67,0,111.2,13.14,26.79,54.0
"2009-08-08 01:37:30",1132324,10.4,94,1.62,0.392,23,110.4005,25.92,26.95,26.06,0,111.2,13.14,26.77,56.0
"2009-08-08 01:38:00",1132325,10.46,96.1,3.641,0.609,23.05,110.383,25.88,26.95,25.71,0,111.2,13.14,26.72,58.1
"2009-08-08 01:38:30",1132326,10.92,93.3,2.53,0.405,22.94,110.3809,25.87,26.93,26.95,0,111.1,13.14,26.72,55.3
"2009-08-08 01:39:00",1132327,11.03,92.3,1.747,0.309,22.85,110.3761,25.86,26.9,27.13,0,111.1,13.14,26.70,54.3
"2009-08-08 01:39:30",1132328,11.03,95.1,3.349,0.474,23.17,110.355,25.81,26.88,25.88,0,111.1,13.14,26.65,57.1
"2009-08-08 01:40:00",1132329,9.89,94.9,5.452,0.594,23.38,110.3477,25.79,26.86,23.82,0,111.1,13.14,26.63,56.9
"2009-08-08 01:40:30",1132330,10.12,94.3,1.805,0.448,23.12,110.3472,25.79,26.83,25.44,0,111.1,13.14,26.63,56.3
"2009-08-08 01:41:00",1132331,10.52,96.7,2.087,0.347,23.22,110.3472,25.79,26.82,25.09,0,111.1,13.14,26.63,58.7
"2009-08-08 01:41:30",1132332,10.47,95.9,2.683,0.576,23.17,110.3472,25.79,26.82,25.18,0,111.1,13.14,26.63,57.9
"2009-08-08 01:42:00",1132333,10.03,96.4,2.546,0.526,23.27,110.3472,25.79,26.8,24.7,0,111.1,13.14,26.63,58.4
"2009-08-08 01:42:30",1132334,10.91,97.5,3.575,0.408,23.14,110.3472,25.79,26.79,25.7,0,111.1,13.14,26.63,59.5
"2009-08-08 01:43:00",1132335,11.08,99.6,1.594,0.368,23.36,110.3472,25.79,26.78,25.32,0,111.1,13.14,26.63,61.6
"2009-08-08 01:43:30",1132336,10.3,101.4,2.372,0.325,23.39,110.3472,25.79,26.79,23.36,0,111.1,13.14,26.63,63.4
"2009-08-08 01:44:00",1132337,10.1,102.6,2.545,0.591,23.24,110.3472,25.79,26.77,24.39,0,111.1,13.14,26.63,64.6
"2009-08-08 01:44:30",1132338,9.2,104.1,3.539,0.637,23.34,110.3472,25.79,26.76,23.32,0,111.1,13.14,26.63,66.1
"2009-08-08 01:45:00",1132339,9.73,104.1,3.408,0.364,23.39,110.3472,25.79,26.76,22.63,0,111.1,13.14,26.63,66.1
"2009-08-08 01:45:30",1132340,10.22,104.4,4.868,0.632,23.41,110.3488,25.79,26.76,22.07,0,111.1,13.14,26.63,66.4
"2009-08-08 01:46:00",1132341,10.09,99.5,3.301,0.713,23.02,110.3556,25.81,26.77,24.28,0,111.1,13.14,26.65,61.5
"2009-08-08 01:46:30",1132342,10.11,106.7,4.139,0.615,23.09,110.3626,25.83,26.78,24.75,0,111.1,13.14,26.67,68.7
"2009-08-08 01:47:00",1132343,10.02,101.5,3.418,0.667,23.11,110.3707,25.85,26.79,24.59,0,111.1,13.14,26.69,63.5
"2009-08-08 01:47:30",1132344,10.54,101.4,3.029,0.569,22.85,110.3665,25.84,26.8,26.71,0,111.1,13.14,26.68,63.4
"2009-08-08 01:48:00",1132345,10.6,103,2.339,0.3,23.15,110.3564,25.81,26.8,25.6,0,111.1,13.14,26.65,65.0